Windhoek, Namibia

2:01 AM CAT on December 18, 2017 (GMT +0200)
Windhoek

Weather History for FYWW - November, 2013

Change the Weather History Date:

Monday, November 18, 2013

  Actual Average Record
Temperature  
Mean Temperature 76 °F -  
Max Temperature 91 °F - - ()
Min Temperature 60 °F - - ()
Cooling Degree Days 10    
Growing Degree Days 26 (Base 50)    
Moisture  
Dew Point 28 °F    
Average Humidity 16    
Maximum Humidity 24    
Minimum Humidity 6    
Precipitation  
Precipitation 0.00 in - - ()
Sea Level Pressure  
Sea Level Pressure 30.04 in    
Wind  
Wind Speed 4 mph ()    
Max Wind Speed 12 mph    
Max Gust Speed 22 mph    
Visibility 6.2 miles    
Events      
T = Trace of Precipitation, MM = Missing Value Source: Averaged Metar Reports

Daily Weather History Graph

Daily Weather History Graph

Search for Another Location

Airport or City:

Trip Planner

Search our weather history database for the weather conditions in past years. The results will help you decide how hot, cold, wet, or windy it might be!

Date:

Astronomy

Nov. 18, 2013 Rise Set
Actual Time 5:59 AM WAST 7:14 PM WAST
Civil Twilight 5:35 AM WAST 7:38 PM WAST
Nautical Twilight 5:06 AM WAST 8:07 PM WAST
Astronomical Twilight 4:36 AM WAST 8:37 PM WAST
Moon 8:05 PM WAST 6:32 AM WAST
Length of Visible Light 14h 03m
Length of Day
13h 14m
Full, 99% of the Moon is Illuminated
Nov 18
Full
Nov 25
Last Quarter
Dec 3
New
Dec 9
First Quarter
Dec 17
Full

Hourly Weather History & Observations

Time (WAST) Temp. Dew Point Humidity Pressure Visibility Wind Dir Wind Speed Gust Speed Precip Events Conditions
12:00 AM 68.0 °F 28.4 °F 23% 30.06 in - SE 2.3 mph - N/A   Unknown
1:00 AM 66.2 °F 24.8 °F 21% 30.06 in - ESE 3.5 mph - N/A   Unknown
2:00 AM 66 °F 25 °F 11%  in - North 2.3 mph - -  
2:00 AM 64.4 °F 26.6 °F 24% 30.06 in - North 2.3 mph - N/A   Unknown
3:00 AM 62.6 °F 24.8 °F 24% 30.06 in - East 3.5 mph - N/A   Unknown
4:00 AM 64.4 °F 26.6 °F 24% 30.06 in - ESE 3.5 mph - N/A   Unknown
5:00 AM 63 °F 24 °F 12%  in - East 3.5 mph - -  
5:00 AM 62.6 °F 24.8 °F 24% 30.06 in - East 2.3 mph - N/A   Unknown
7:00 AM 66.2 °F 26.6 °F 23% 30.06 in - East 6.9 mph - N/A   Clear
8:00 AM 75 °F 26 °F 8%  in 47 mi East 5.8 mph - -   Scattered Clouds
8:00 AM 73.4 °F 26.6 °F 18% 30.06 in - East 4.6 mph - N/A   Clear
9:00 AM 80.6 °F 28.4 °F 15% 30.06 in - East 4.6 mph - N/A   Clear
10:00 AM 82.4 °F 24.8 °F 12% 30.06 in - North 5.8 mph - N/A   Clear
11:00 AM 84 °F 26 °F 6%  in 47 mi NW 8.1 mph - -  
11:00 AM 82.4 °F 26.6 °F 13% 30.06 in - NW 6.9 mph - N/A   Clear
12:00 PM 84.2 °F 30.2 °F 14% 30.06 in - NNW 6.9 mph - N/A   Clear
1:00 PM 87.8 °F 32.0 °F 14% 30.04 in - NW 5.8 mph - N/A   Clear
2:00 PM 89 °F 33 °F 7%  in 47 mi NW 9.2 mph - -   Mostly Cloudy
2:00 PM 87.8 °F 32.0 °F 14% 30.01 in - NW 8.1 mph - N/A   Clear
3:00 PM 91.4 °F 32.0 °F 12% 29.98 in 6.2 mi NNW 8.1 mph - N/A   Mostly Cloudy
4:00 PM 87.8 °F 32.0 °F 14% 29.98 in 6.2 mi West 11.5 mph - N/A   Mostly Cloudy
5:00 PM 88 °F 32 °F 7%  in 47 mi West 10.4 mph - -   Scattered Clouds
6:00 PM 84.2 °F 32.0 °F 15% 29.98 in 6.2 mi West 10.4 mph - N/A   Mostly Cloudy
8:00 PM 79 °F 31 °F 9%  in 47 mi WSW 9.2 mph - -   Partly Cloudy
8:00 PM 78.8 °F 32.0 °F 18% 30.01 in - WSW 9.2 mph 21.9 mph N/A   Clear
9:00 PM 75.2 °F 28.4 °F 18% 30.04 in - West 5.8 mph - N/A   Unknown
10:00 PM 73.4 °F 28.4 °F 19% 30.04 in - Calm Calm - N/A   Unknown
11:00 PM 73 °F 29 °F 11%  in - West 5.8 mph - -  
11:00 PM 73.4 °F 30.2 °F 20% 30.06 in - West 5.8 mph - N/A   Unknown